Location: Unspecified
(49.2170°N, 0.0000°E)
Time: 16:55:00
(UTC+00:00)

Envisat - Pass Details

Date: 29 November 2020
Orbit: 764 x 766 km, 98.1° (Epoch: 20 January)

Event Time Altitude Azimuth Distance (km) Brightness Sun altitude
Rises 04:52:04 0° 25° (NNE) 3,246 6.5 -25.2°
Reaches altitude 10° 04:54:55 10° 40° (NE) 2,314 5.9 -24.7°
Maximum altitude 04:58:49 22° 91° (E) 1,637 5.5 -24.1°
Drops below altitude 10° 05:02:42 10° 141° (SE) 2,300 6.0 -23.5°
Sets 05:05:30 0° 157° (SSE) 3,220 6.6 -23.0°
